sat.trackr.live / text

‹ back to catalog

STARLINK-3871

NORAD 52496 · 2022-049AX

PAYLOAD ACTIVE UNKNOWN

§ Identity

Operator
Country
US
Launch date
2022-05-06
Launch site
AFETR
Launch vehicle
Mass (kg)
RCS (m²)

Purposes: comms

External: N2YO · Heavens-Above · Gunter

§ Orbital elements

Epoch: 2026-09-19T14:00:46.438848Z

Period
93.85 min
Inclination
53.1617°
Eccentricity
0.0001282
Mean motion
15.34388951 rev/d
Perigee alt
461.9 km
Apogee alt
463.6 km
Semi-major
6,840.9 km
B*
2.4410e-5
RAAN
241.6775°
Arg perigee
91.7081°
Mean anomaly
268.4068°
Rev number
24,189

§ Raw data

STARLINK-38711 52496U 22049AX  26262.58387082  .00000448  00000+0  24410-4 0  99922 52496  53.1617 241.6775 0001282  91.7081 268.4068 15.34388951241897

JSON: /api/v1/satellites/52496 · /tle

For live sub-satellite position, see the globe view (requires WebGL).

§ Visibility from observer

Set your observer location to see the next 7 days of passes ≥ 10°. The values pass through the URL so the page stays shareable.

No JS? Fill the form by hand. The geolocation button needs JavaScript.